{"data":{"norad_id":53200,"intl_designator":"2022-084M","name":"STARLINK-4417","alt_names":[],"object_type":"PAYLOAD","status":"ACTIVE","operator":null,"country":"US","launch_date":"2022-07-22","launch_site_code":"AFWTR","launch_vehicle":null,"mission":null,"orbit_class":"UNKNOWN","rcs_meters":null,"size_class":null,"mass_kg":null,"dimensions":null,"purposes":["comms"],"wikipedia_slug":null,"has_3d_model":false,"image_url":null,"decayed_at":null,"tle_current":{"epoch":"2026-09-19T22:23:00.146112Z","epoch_age_seconds":121273,"freshness":"FRESH","line1":"1 53200U 22084M   26262.93264058  .00000954  00000+0  31879-4 0  9990","line2":"2 53200  97.2838 318.7058 0001632  91.8506 268.2923 15.33435998229322","mean_motion":15.33435998,"eccentricity":0.0001632,"inclination_deg":97.2838,"raan_deg":318.7058,"arg_perigee_deg":91.8506,"mean_anomaly_deg":268.2923,"bstar":3.1879e-5,"rev_number":22932,"period_min":93.906755931003,"perigee_km":464.45306525213,"apogee_km":466.6868512033,"semimajor_km":6843.7069582277,"source":"CELESTRAK","updated_at":"2026-09-20T09:00:40.190756Z"}}}